www.pogodaiklimat.ru
ПОГОДА в Батлере
Время
и дата
00:56 26.09
00:59 26.09
01:06 26.09
01:27 26.09
01:49 26.09
01:56 26.09
02:28 26.09
02:36 26.09
02:56 26.09
03:30 26.09
03:47 26.09
03:56 26.09
04:29 26.09
04:46 26.09
04:56 26.09
05:56 26.09
06:27 26.09
06:56 26.09
07:56 26.09
08:15 26.09
08:56 26.09
09:56 26.09
10:33 26.09
10:56 26.09
11:56 26.09
12:56 26.09
13:56 26.09
14:56 26.09
15:56 26.09
16:56 26.09
17:56 26.09
18:56 26.09
19:56 26.09
20:56 26.09
21:56 26.09
22:56 26.09
23:56 26.09
00:34 27.09
00:56 27.09
01:56 27.09
02:56 27.09
03:24 27.09
03:56 27.09
04:56 27.09
05:56 27.09
06:31 27.09
06:56 27.09
07:56 27.09
Ветер
(напр.,м/с)
Видим. Явления Облачность Т
(С)
Тd
(С)
f
(%)
Тe
(С)
Тes
(С)
Комфортность P
(гПа)
Po
(гПа)
Тmin
(С)
Tmax
(С)
R
(мм)
R24
(мм)
S
(см)
З 4 16 км 10/10 450 м +12.8 +12.2 96 +11 +11 1006.6 961.8 +12.8 +13.9
З 4 16 км 10/10 270 м +13.0 +12.0 94 +11 +11 961.8
З 3 16 км 10/10 360 м +13.0 +12.0 94 +12 +12 961.8
ЮЗ 4 16 км 10/10 240 м +13.0 +12.0 94 +11 +11 961.8
ЮЗ 3 16 км 10/10 240 м +13.0 +12.0 94 +12 +12 961.5
ЮЗ 3 16 км 10/10 390 м +12.2 +12.2 100 +10 +10 1006.4 961.5
ЮЗ 3 16 км 10/8 330 m
[Ac]
+12.0 +12.0 100 +10 +10 961.5
ЮЗ 3 16 км 10/8 270 m
[Ac]
+12.0 +12.0 100 +10 +10 961.5
ЮЗ 3 13 км слабый дождь 10/10 210 м +12.8 +12.2 96 +11 +11 1006.0 961.1
ЮЗ 3 11 км слабый дождь 10/10 150 м +12.0 +12.0 100 +10 +10 960.8
ЮЗ 3 16 км 10/10 150 м +13.0 +12.0 94 +12 +12 960.8
ЮЗ 4 16 км 10/10 210 м +12.8 +12.8 100 +11 +11 1005.6 960.5 2.5
ЮЗ 4 16 км 10/10 180 м +13.0 +13.0 100 +11 +11 960.5
ЮЗ 5 16 км 10/10 240 м +13.0 +12.0 94 +11 +11 960.5
ЮЗ 4 16 км 10/10 240 м +12.8 +12.2 96 +11 +11 1005.4 960.5
ЮЗ 6 16 км 10/10 240 м +12.8 +12.2 96 +10 +10 1005.6 960.8
ЮЗ 5 16 км 8/8 300 м +12.0 +12.0 100 +9 +9 960.8
ЮЗ 5 16 км 10/10 360 м +12.2 +11.7 97 +10 +10 1006.3 961.1 +12.2 +12.8 2.5 7.1
З 6
{9}
16 км 10/10 420 м +12.8 +11.1 89 +10 +10 1006.9 961.8
З 6 16 км 8/8 480 м +13.0 +11.0 88 +11 +11 961.8
З 4
{11}
16 км 10/10 600 м +13.9 +10.6 80 +12 +12 1007.4 962.4
ЮЗ 6
{11}
16 км 10/10 720 м +15.0 +9.4 69 +13 +13 1007.5 962.4
ЮЗ 5
{11}
16 км 8/8 840 м +14.0 +9.0 72 +12 +13 962.4
ЮЗ 5
{10}
16 км 8/8 990 м +16.7 +10.0 65 +16 +17 1007.0 962.1
З 6 16 км ясно +15.6 +8.9 64 +14 +18 1006.9 961.8
З 5
{9}
16 км 5/5 1410 м +16.1 +10.0 67 +15 +18 1006.8 961.8 +12.2 +16.7 0.5
З 8
{13}
16 км 8/8 1500 m
[Ac]
+17.2 +7.2 52 +16 +16 1006.9 962.1
З 8
{13}
н/о 8/5 1800 m
[Ac]
+16.7 +6.7 52 +15 +16 1006.7 961.8
З 8
{12}
н/о 5/0 2700 m
[Ac]
+16.7 +6.1 50 +15 +16 1007.4 962.4 1.8
З 8
{11}
16 км 10/0 2700 m
[Ac]
+15.6 +6.1 53 +14 +14 1008.6 963.4
З 4 16 км 8/2 1800 m
[Ac]
+14.4 +7.2 62 +13 +14 1009.2 964.0
З 6 16 км 5/2 1800 m
[Ac]
+12.2 +6.1 66 +10 +10 1010.0 964.7 +12.2 +17.8 1.8
ЮЗ 6
{9}
16 км 2/0 2100 m
[Ac]
+11.1 +7.2 77 +8 +8 1010.8 965.3
ЮЗ 5
{9}
16 км ясно +11.1 +7.2 77 +8 +8 1011.0 965.7
З 4 16 км 5/0 2700 m
[Ac]
+10.0 +7.2 83 +7 +7 1011.3 966.0
ЮЗ 4 16 км 2/0 2400 m
[Ac]
+10.0 +7.8 86 +7 +7 1011.3 966.0
ЮЗ 4 16 км ясно +9.4 +7.8 90 +6 +6 1011.4 966.0
ЮЗ 4 16 км 8/8 540 м +9.0 +8.0 93 +6 +6 966.0
ЮЗ 4 16 км 10/10 480 м +10.0 +8.3 89 +7 +7 1011.3 966.0 +8.9 +12.2
ЮЗ 3 16 км 8/8 480 м +8.9 +7.8 93 +6 +6 1011.3 966.0
ЮЗ 4 16 км 10/10 480 м +8.3 +7.8 97 +5 +5 1011.3 966.0
ЮЗ 4 16 км 5/5 420 м +8.0 +8.0 100 +4 +4 966.0
ЮЗ 4 16 км ясно +7.8 +7.2 96 +4 +4 1011.5 966.0
З 3 16 км ясно +7.8 +7.2 96 +5 +5 1011.6 966.0
ЮЗ 3 16 км ясно +7.8 +7.2 96 +5 +5 1012.1 966.6
З 3 16 км 8/8 360 м +8.0 +8.0 100 +5 +5 967.0
З 4 16 км 10/10 300 м +8.3 +7.8 97 +5 +5 1012.7 967.0 +7.8 +10.0 2.3
З 4 16 км 10/10 300 м +9.4 +7.8 90 +6 +6 1013.1 967.6
Местоположение метеостанции Butler County Airport: широта 40.7833 долгота -79.9500 высота над уровнем моря 380 м.
В архиве по умолчанию представлена погода в Батлере за последние 1-2 суток. Обновление информации о фактической погоде в базе происходит ежечасно! Архивные данные за месяц целиком и за предыдущие месяцы Вы можете получить, выбрав интересующий диапазон дат из раскрывающегося списка и нажав кнопку "Ввод!".
Внимание! Архив погоды МЕТАР в базе сайта по станциям, не включенным в климатический монитор, хранится не более 60 дней. Нет смысла пытаться выбрать более раннюю дату.
*Определитесь, кто Вы:
Внимание! Время в таблицах - местное (без учета летнего времени). Для получения всемирного времени необходимо вычесть поправку, которая равна -5 ч.
Смотрите также архив погоды в соседних городах и на ближайших метеорологических станциях:
Партнеры нашего сайта:      
Пояснения к столбцам:
  • Ветер - указаны скорость ветра в м/с - средняя за 10 мин, порывы в срок и между сроками (в фигурных скобках) и направление, откуда дует ветер: С - северный,
  • СВ - северо-восточный, В - восточный, ЮВ - юго-восточный, Ю - южный, ЮЗ - юго-западный, З - западный, СЗ - северо-западный.
  • Видимость - горизонтальная дальность видимости в метрах или километрах. При видимости от 1 до 10 км при отсутствии осадков обычно наблюдается дымка, при ухудшении видимости до 1 км и менее - туман. В сухую погоду видимость может ухудшаться дымом, пылью или мглою.
  • Явления - указаны атмосферные явления, наблюдавшиеся в срок или в последний час перед сроком; фигурными скобками обозначены явления, наблюдавшиеся между сроками (за 1-3 часа до срока); квадратными скобками обозначены град или гололедные отложения с указанием их диаметра в мм.
  • Облачность - указаны через наклонную черту общая и нижняя облачность в баллах и высота нижней границы облаков в метрах; квадратными скобками обозначены формы облаков: Ci - перистые, Cs - перисто-слоистые, Cc - перисто-кучевые, Ac - высококучевые, As - высокослоистые, Sc - слоисто-кучевые, Ns - слоисто-дождевые, Cu - кучевые, Cb - кучево-дождевые. Подробнее классификацию облаков см. в Атласе облаков (PDF).
  • T - Температура воздуха - температура, измеренная на высоте 2 м над землей.
  • Td - Температура точки росы - температура, при понижении до которой содержащийся в воздухе водяной пар достигнет насыщения.
  • f - Относительная влажность воздуха - влажноcть воздуха, измеренная на высоте 2 м над землей.
  • Te - Эффективная температура - температура, которую ощущает одетый по сезону человек в тени. Характеристика душности погоды. При расчете учитывается влияние влажности воздуха и скорости ветра на теплоощущения человека.
  • Tes - Эффективная температура на солнце - температура, которую ощущает человек, с поправкой на солнечный нагрев. Характеристика знойности погоды. Зависит от высоты солнца над горизонтом, облачности и скорости ветра. Ночью, в пасмурную погоду, а также при ветре 12 м/с и более поправка равна нулю.
  • P - Атмосферное давление - приведенное к уровню моря атмосферное давление.
  • Po - Атмосферное давление - измеренное на уровне метеостанции атмосферное давление.
  • Tmin - Минимальная температура - минимум температуры воздуха на высоте 2 м над землей.
  • Tmax - Максимальная температура - максимум температуры воздуха на высоте 2 м над землей.
  • R - Количество осадков - Количество выпавших осадков за период времени, мм. При наведении курсора мыши на число - период времени, за который выпало указанное количество осадков.
  • R24 - Количество осадков - Количество выпавших осадков за 24 часа, мм.
  • S - Снежный покров - Высота снежного покрова, см. При наведении курсора мыши на число - состояние снежного покрова и степень покрытия местности в баллах.